Temperature
22 21 21 21 21 20 20 20 20 20 20 20 19 19 19 19 19 19 19 19 19 19 19 18 18 18 18 18 18 17 17 17 17 17 17 17 16 16 16 16 16 16 16
22 21 21 21 21 20 20 20 20 20 20 20 19 19 19 19 19 19 19 19 19 19 19 18 18 18 18 18 17 17 17 17 17 17 16 16 16 16 16 16 16 15 15
22 21 21 21 21 20 20 20 20 20 20 19 19 19 19 19 19 19 19 19 19 18 18 18 18 18 18 17 17 17 17 17 16 16 16 16 16 16 15 15 15 15 15
22 21 21 21 20 20 20 20 20 20 19 19 19 19 19 19 19 19 19 19 18 18 18 18 18 18 17 17 17 17 17 16 16 16 16 16 15 15 15 15 15 15 15
22 21 21 21 20 20 20 20 20 19 19 19 19 19 19 19 19 18 18 18 18 18 18 18 17 17 17 17 16 16 16 16 16 16 16 15 15 15 15 15 15 15 15
21 21 21 21 20 20 20 20 19 19 19 19 19 19 19 19 18 18 18 18 18 18 17 17 17 17 17 16 16 16 16 16 15 15 15 15 15 15 15 14 14 14 14
21 21 20 20 20 20 19 19 19 19 19 19 18 18 18 18 18 18 18 18 17 17 17 17 17 17 16 16 16 16 15 15 15 15 15 15 15 15 14 14 14 14 14
21 21 20 20 20 20 19 19 19 19 19 19 18 18 18 18 18 18 17 17 17 17 17 16 16 16 16 16 16 15 15 15 15 15 15 15 14 14 14 14 14 13 13
20 20 20 20 20 19 19 19 18 18 18 18 18 18 18 18 18 17 17 17 17 17 16 16 16 16 16 15 15 15 15 15 15 15 14 14 14 14 14 13 13 13 13
20 20 20 20 20 19 19 18 18 18 18 18 17 17 17 17 17 17 17 16 16 16 16 16 16 15 15 15 15 15 15 15 14 14 14 14 14 13 13 13 13 13 12
20 19 19 19 19 19 18 18 18 18 17 17 17 17 17 17 17 16 16 16 16 16 16 15 15 15 15 15 15 14 14 14 14 14 14 14 14 13 13 13 13 12 12
19 19 19 18 18 18 18 18 17 17 17 17 16 16 16 16 16 16 16 16 15 15 15 15 15 15 15 14 14 14 14 14 14 14 13 13 13 13 13 13 12 12 12
18 18 18 18 18 17 17 17 17 17 16 16 16 16 16 16 15 15 15 15 15 15 15 15 14 14 14 14 14 14 13 13 13 13 13 13 13 13 13 12 12 12 12
18 18 17 17 17 17 17 17 16 16 16 16 16 15 15 15 15 15 15 15 15 14 14 14 14 14 14 13 13 13 13 13 13 12 12 12 12 12 12 12 12 11 12
17 17 17 17 16 16 16 16 16 16 15 15 15 15 15 15 15 15 14 14 14 14 14 13 13 13 13 13 13 13 12 12 12 12 12 12 12 12 12 11 11 11 11
17 16 16 16 16 16 15 15 15 15 15 15 15 15 14 14 14 14 14 13 13 13 13 13 13 12 12 12 12 12 12 12 11 11 11 11 11 11 11 11 11 11 10
16 16 15 15 15 15 15 15 14 14 14 14 14 14 14 14 13 13 13 13 12 12 12 12 12 12 11 11 11 11 11 11 11 11 11 11 10 10 10 10 10 10 10
15 15 15 15 15 15 14 14 14 14 14 13 13 13 13 13 13 13 13 12 12 12 11 11 11 11 11 11 11 11 11 11 10 10 10 10 10 10 10 10 10 10 10
15 15 14 14 14 14 14 14 14 13 13 13 13 12 12 12 12 12 12 12 12 11 11 10 10 10 10 10 10 10 10 10 10 10 10 9 9 9 9 9 9 9 9
14 14 14 14 14 14 13 13 13 13 13 12 12 12 12 12 12 12 11 11 11 11 11 10 10 10 10 10 10 10 9 9 9 9 9 9 9 9 9 9 9 9 9
14 13 13 13 13 13 13 13 12 12 12 12 12 12 12 11 11 11 11 10 10 10 10 10 10 9 9 9 9 9 9 9 9 9 8 8 8 8 8 8 8 8 8
13 13 13 13 13 12 12 12 12 12 12 12 11 11 11 11 11 10 10 10 10 10 9 9 9 9 9 9 9 9 8 8 8 8 8 8 8 8 7 7 7 7 7
13 13 13 12 12 12 12 12 12 11 11 11 11 11 11 10 10 10 10 9 9 9 9 9 9 9 8 8 8 8 8 8 8 8 8 7 7 7 7 7 7 7 7
12 12 12 12 12 12 12 11 11 11 11 11 10 10 10 10 10 9 9 9 9 9 8 8 8 8 8 8 8 8 8 7 7 7 7 7 7 7 7 6 6 6 6
12 12 12 12 12 11 11 11 11 10 10 10 10 10 9 9 9 9 9 8 8 8 8 8 8 7 7 7 7 7 7 7 7 7 7 7 6 6 6 6 6 6 6
11 11 11 11 11 11 10 10 10 10 10 10 9 9 9 9 8 8 8 8 8 8 7 7 7 7 7 7 7 7 7 7 6 6 6 6 6 6 6 6 6 6 6
Wind_Speed
10 9 8 7 7 6 5 5 5 4 4 4 4 4 3 3 3 3 2 2 2 2 1 1 2 2 1 1 1 1 2 2 3 3 2 1 1 2 2 4 5 5 6
10 9 8 7 7 6 6 6 5 5 4 4 4 4 4 4 3 4 4 3 2 2 2 1 2 2 2 1 1 1 1 2 3 3 2 1 2 3 3 3 3 4 6
9 9 8 7 7 7 7 6 5 5 5 5 4 5 5 5 4 4 4 4 3 3 3 3 3 3 2 2 2 2 2 2 2 2 2 1 1 1 1 2 2 2 4
9 8 8 8 7 6 6 6 5 5 5 5 5 5 5 4 3 3 3 3 3 3 3 3 4 4 4 4 3 3 2 2 1 2 2 1 1 1 1 1 2 2 3
9 8 8 7 6 6 5 5 5 5 6 5 5 4 4 4 4 4 4 4 3 3 3 3 3 3 4 4 3 3 3 2 2 2 2 1 1 1 2 2 2 2 2
9 8 7 7 6 6 5 5 4 4 4 4 5 5 4 3 4 5 5 4 3 3 3 3 3 2 3 3 4 5 5 4 4 3 3 3 4 3 3 2 2 1 3
8 7 6 6 6 6 6 5 5 5 4 4 4 4 3 3 4 4 5 4 4 4 4 3 3 2 2 2 3 4 4 5 7 6 5 6 5 5 4 3 3 3 4
7 7 6 6 6 5 5 5 5 4 4 4 3 4 3 2 3 4 4 4 3 3 3 3 3 3 3 2 2 2 3 4 5 5 5 6 6 5 6 5 5 3 2
7 6 6 6 5 5 5 4 4 4 3 3 3 3 3 2 2 3 3 2 2 2 3 2 3 3 3 2 2 3 4 5 5 5 6 6 6 6 5 2 2 2 2
6 6 5 5 6 6 5 4 3 4 4 3 3 3 4 3 2 2 3 2 2 2 1 1 2 2 2 1 2 3 4 5 4 4 3 4 3 4 5 5 5 4 2
5 4 4 4 5 5 5 4 4 4 4 3 3 2 2 3 2 3 4 3 3 2 2 2 3 3 3 3 3 4 6 5 3 3 2 2 2 2 3 4 4 5 4
4 4 4 4 4 4 4 4 4 5 5 4 3 1 1 1 2 2 3 3 3 3 3 3 3 4 3 3 3 4 4 2 1 1 1 2 3 3 4 4 4 5 5
4 4 4 3 3 4 4 4 4 3 4 4 3 3 2 2 1 2 2 3 3 2 3 4 3 2 2 2 3 3 2 1 1 1 2 3 4 4 2 2 2 2 3
4 4 3 3 2 2 3 3 4 4 3 4 4 3 3 2 1 1 1 1 1 1 1 2 1 1 1 1 2 2 1 1 2 2 3 3 2 1 2 2 2 2 2
4 3 3 3 4 3 2 1 3 3 5 5 4 5 4 3 4 4 3 2 2 2 1 1 1 1 1 2 2 2 1 1 1 1 2 2 2 2 2 2 2 1 2
3 3 3 2 2 3 3 1 3 1 2 4 4 5 3 3 4 3 2 2 3 5 4 1 1 1 2 2 2 2 1 1 1 1 1 2 2 2 2 2 2 2 3
4 4 3 3 3 3 4 4 1 2 1 1 3 4 4 4 3 3 3 3 4 6 3 1 1 1 1 1 1 1 1 2 1 1 1 2 2 2 2 2 2 3 3
3 4 3 3 3 3 4 4 3 3 1 1 1 3 4 5 4 4 4 4 2 2 1 2 2 1 1 1 1 1 1 1 1 1 2 2 2 2 2 2 3 3 3
3 3 3 3 3 3 3 3 3 3 3 1 1 1 1 3 3 3 4 3 3 2 2 2 1 1 1 2 2 2 2 1 1 1 2 2 2 2 2 3 3 3 3
2 3 3 3 3 3 3 3 3 3 3 2 2 2 2 2 2 2 1 1 2 2 2 2 2 2 2 2 1 1 1 1 1 1 1 1 2 1 2 3 3 3 3
1 1 2 2 2 3 3 3 3 3 3 3 2 3 5 4 3 3 2 2 2 2 1 1 1 2 2 1 1 1 0 1 1 1 1 1 1 2 2 2 3 3 3
2 1 1 2 2 2 2 3 3 3 3 3 2 2 5 3 2 2 2 2 2 2 2 2 2 2 2 2 2 2 1 1 1 1 1 1 1 2 2 2 3 3 3
2 1 1 1 2 3 2 2 3 3 3 3 3 3 3 2 2 2 2 1 1 0 0 1 1 1 1 0 1 2 1 1 1 1 1 1 1 2 2 2 3 3 3
2 2 2 2 2 2 2 2 3 3 3 3 3 3 3 2 2 2 2 1 1 1 1 1 1 1 2 2 1 1 1 1 0 1 1 1 2 2 2 2 3 4 4
3 3 3 2 2 2 2 3 3 3 3 4 3 3 3 2 2 2 2 1 2 1 2 2 1 2 2 3 2 2 1 1 1 1 1 1 1 2 2 3 3 4 4
3 3 3 3 3 3 3 3 3 3 3 3 3 3 3 3 2 2 2 2 2 1 2 2 1 2 2 2 2 2 1 1 1 2 1 1 1 2 3 3 4 4 4
Wind_Direction
186 188 188 185 185 183 187 198 199 199 193 189 186 183 182 183 183 179 192 184 196 235 232 213 248 250 248 257 223 203 199 182 226 266 257 254 212 217 202 214 226 223 231
185 183 185 182 180 185 197 203 197 197 197 190 184 185 189 192 188 186 202 206 200 220 229 216 256 247 243 242 220 229 225 201 200 245 268 259 237 214 201 212 219 227 231
173 176 180 185 189 195 202 204 195 193 194 189 184 190 197 198 193 194 196 207 208 212 207 206 227 216 231 230 213 225 238 231 196 203 244 254 269 225 203 248 251 255 246
169 174 181 188 192 196 199 196 194 194 194 195 195 200 199 196 197 200 198 202 208 216 215 216 223 215 223 227 227 226 214 205 198 197 229 252 265 256 160 243 279 281 269
166 174 184 187 185 179 179 181 183 187 193 191 193 200 197 197 210 204 205 207 208 220 232 231 234 230 230 230 234 222 207 207 203 205 227 230 245 209 226 229 239 272 280
170 180 183 181 180 179 182 182 180 186 188 184 193 196 197 212 210 199 195 204 201 208 227 238 241 252 254 252 244 227 207 206 212 213 222 222 235 226 223 212 207 237 282
169 174 177 178 179 182 182 175 180 188 187 189 197 190 196 208 203 198 194 191 201 215 219 225 241 255 247 256 261 254 243 232 218 208 216 228 225 220 207 211 212 215 236
168 171 171 173 179 181 176 181 187 185 183 188 190 186 187 214 199 194 190 191 200 209 213 209 213 242 250 243 249 269 271 263 244 225 224 235 229 219 205 206 214 229 262
167 173 175 175 174 175 181 186 183 173 170 170 170 167 168 200 187 175 174 184 206 229 224 208 215 233 256 248 242 270 284 287 268 243 240 240 242 231 204 179 191 193 266
179 179 174 174 176 179 183 181 176 169 173 163 162 174 174 188 191 172 173 171 189 236 256 241 224 230 253 244 237 250 268 278 287 283 269 266 256 248 223 200 197 201 222
175 163 166 180 181 182 180 173 166 163 158 157 163 186 177 187 188 172 164 171 188 205 226 241 247 231 241 250 240 242 254 262 271 265 261 264 271 263 246 223 205 197 207
158 162 175 185 186 176 168 171 165 159 161 168 166 178 227 219 207 199 173 179 184 197 237 248 248 239 235 244 253 271 278 282 285 271 270 264 258 257 251 239 226 226 225
153 162 174 182 182 169 164 168 169 168 176 184 181 195 225 245 244 225 201 188 195 211 249 257 250 224 222 257 292 300 316 318 238 246 255 259 254 253 254 254 262 258 263
153 161 162 161 160 154 153 161 169 178 184 190 190 201 215 227 243 266 260 220 210 221 254 261 244 247 264 290 312 317 283 229 213 233 256 273 281 267 248 243 254 261 281
158 162 159 160 160 153 146 166 180 193 191 191 202 199 196 218 237 210 196 207 199 200 149 57 21 352 340 328 325 321 308 313 278 286 282 294 298 284 275 255 238 242 255
162 162 166 165 161 158 147 93 32 136 172 172 183 186 206 205 193 182 191 185 152 141 123 139 229 262 268 280 287 303 305 283 276 265 275 290 292 289 284 279 253 244 257
172 176 174 169 168 170 166 160 157 0 29 165 179 181 188 187 178 174 174 154 136 131 125 180 227 250 274 287 281 268 269 278 289 285 274 277 280 284 279 268 270 273 271
169 175 174 175 173 174 176 176 177 176 187 317 301 197 192 185 178 170 156 127 113 136 177 200 227 243 242 246 253 259 265 288 302 284 276 281 281 275 278 274 265 265 271
166 171 173 179 178 179 177 173 176 176 173 200 311 329 178 156 144 148 143 150 177 193 206 211 226 232 236 237 237 237 236 249 276 271 278 289 290 289 283 279 271 270 260
175 171 166 171 176 174 172 169 176 180 175 182 199 207 165 133 142 164 177 185 184 193 198 213 229 220 218 234 243 238 247 279 296 306 311 312 307 299 291 293 293 285 272
144 147 158 167 179 179 175 177 183 184 186 194 208 190 168 168 177 183 182 189 196 202 204 213 231 229 223 231 216 196 193 261 276 276 301 310 314 313 309 308 306 305 303
125 144 182 184 177 173 174 176 173 173 175 177 173 157 166 157 169 177 179 192 202 198 198 194 215 237 225 223 207 189 190 220 273 271 283 306 308 303 304 311 313 306 301
121 128 145 141 142 150 152 154 159 159 159 162 154 149 151 152 157 161 162 167 172 198 207 189 204 302 340 65 139 149 159 213 255 239 215 279 298 297 300 301 300 300 295
94 100 105 103 111 126 130 131 132 135 137 136 131 128 129 132 139 143 142 144 130 90 77 72 95 99 70 80 104 125 141 187 271 259 221 242 276 285 288 291 293 291 289
85 82 80 86 94 105 111 115 118 121 123 125 124 122 121 120 117 116 120 119 113 93 75 77 95 112 116 112 113 126 117 75 21 321 259 237 263 281 288 291 288 291 288
79 75 75 79 88 95 105 108 112 116 112 110 111 114 112 108 104 101 98 93 93 87 76 74 89 113 121 125 132 135 124 71 357 335 307 279 287 294 297 292 295 293 293
Height
1512 1514 1516 1518 1519 1521 1522 1522 1523 1524 1525 1526 1526 1527 1528 1529 1529 1530 1530 1530 1530 1530 1530 1530 1529 1530 1529 1528 1528 1527 1526 1526 1524 1523 1523 1522 1522 1521 1521 1520 1520 1519 1519
1509 1512 1514 1515 1517 1518 1519 1520 1521 1521 1522 1523 1524 1525 1526 1526 1527 1527 1527 1527 1527 1527 1527 1527 1527 1527 1526 1525 1524 1524 1523 1523 1522 1520 1520 1519 1518 1518 1517 1517 1517 1516 1516
1507 1509 1511 1512 1514 1515 1516 1517 1518 1519 1520 1521 1522 1522 1523 1524 1524 1525 1525 1525 1524 1524 1524 1524 1524 1523 1523 1522 1521 1520 1520 1519 1519 1518 1517 1516 1516 1515 1514 1514 1514 1513 1513
1505 1507 1509 1510 1511 1513 1514 1515 1516 1517 1517 1518 1519 1520 1521 1521 1521 1521 1521 1521 1521 1521 1521 1521 1520 1520 1519 1519 1518 1517 1516 1516 1515 1515 1514 1513 1512 1512 1511 1510 1510 1510 1509
1502 1504 1506 1508 1509 1510 1511 1512 1513 1514 1515 1516 1516 1517 1518 1518 1518 1518 1518 1518 1518 1518 1517 1517 1517 1517 1517 1516 1515 1514 1513 1512 1511 1511 1510 1509 1509 1508 1508 1507 1506 1506 1506
1499 1501 1503 1505 1506 1507 1508 1509 1510 1511 1512 1513 1513 1514 1514 1514 1515 1515 1515 1515 1515 1514 1514 1514 1514 1514 1513 1513 1512 1511 1510 1509 1508 1507 1506 1506 1505 1505 1504 1504 1503 1503 1501
1496 1499 1501 1502 1503 1504 1505 1506 1507 1507 1508 1509 1510 1511 1511 1511 1512 1512 1512 1512 1511 1511 1511 1511 1510 1510 1509 1509 1508 1507 1506 1505 1505 1504 1503 1502 1502 1501 1501 1500 1500 1499 1498
1493 1495 1497 1499 1500 1502 1503 1503 1504 1504 1504 1505 1506 1507 1507 1507 1508 1508 1508 1508 1508 1507 1508 1507 1507 1506 1506 1505 1504 1503 1502 1501 1501 1500 1499 1499 1498 1498 1498 1497 1496 1496 1495
1490 1492 1494 1496 1497 1498 1499 1500 1501 1501 1501 1502 1502 1503 1503 1503 1504 1504 1505 1504 1504 1504 1504 1504 1503 1502 1502 1501 1500 1499 1498 1497 1497 1497 1496 1495 1495 1494 1494 1493 1493 1492 1490
1487 1489 1491 1492 1494 1495 1496 1497 1498 1498 1498 1499 1499 1499 1500 1500 1500 1500 1501 1500 1500 1500 1500 1500 1499 1499 1498 1497 1497 1495 1494 1493 1493 1493 1492 1491 1491 1490 1490 1489 1489 1488 1486
1484 1485 1487 1489 1490 1491 1493 1493 1494 1494 1495 1495 1495 1496 1496 1496 1497 1497 1497 1497 1496 1496 1496 1496 1495 1495 1495 1494 1494 1492 1491 1490 1489 1489 1488 1487 1487 1486 1486 1485 1485 1484 1483
1481 1482 1484 1485 1486 1488 1489 1489 1490 1490 1491 1492 1492 1492 1492 1493 1493 1493 1493 1493 1493 1493 1492 1492 1492 1492 1491 1490 1489 1489 1488 1487 1486 1485 1484 1483 1483 1482 1481 1481 1481 1480 1479
1478 1479 1481 1482 1483 1484 1485 1485 1486 1487 1487 1488 1488 1488 1488 1489 1489 1490 1490 1490 1490 1490 1489 1489 1489 1488 1487 1486 1485 1485 1484 1483 1482 1481 1480 1480 1479 1478 1478 1477 1476 1476 1475
1475 1476 1477 1478 1479 1480 1481 1482 1482 1483 1483 1483 1483 1484 1484 1485 1485 1485 1486 1486 1486 1486 1486 1486 1485 1484 1484 1482 1482 1481 1480 1479 1478 1477 1476 1476 1475 1474 1473 1473 1472 1471 1470
1471 1472 1473 1474 1475 1476 1477 1478 1478 1479 1480 1480 1480 1481 1480 1480 1481 1482 1482 1482 1482 1482 1482 1481 1481 1480 1479 1478 1477 1476 1476 1475 1474 1473 1472 1471 1471 1470 1469 1468 1468 1467 1466
1468 1469 1470 1471 1472 1472 1473 1474 1475 1476 1476 1477 1477 1478 1478 1478 1478 1478 1478 1479 1478 1478 1478 1477 1476 1476 1475 1474 1473 1472 1472 1471 1470 1470 1469 1468 1467 1466 1465 1464 1463 1463 1462
1465 1466 1467 1467 1468 1469 1469 1470 1470 1471 1472 1473 1473 1474 1475 1475 1475 1475 1475 1475 1475 1474 1474 1473 1473 1472 1471 1470 1470 1469 1468 1468 1467 1466 1465 1464 1463 1462 1461 1460 1460 1459 1458
1462 1463 1463 1464 1465 1466 1466 1467 1467 1467 1468 1468 1469 1469 1470 1471 1471 1471 1471 1471 1471 1470 1470 1470 1470 1469 1468 1467 1467 1466 1465 1464 1463 1462 1461 1460 1460 1459 1458 1457 1456 1455 1454
1459 1460 1460 1461 1462 1462 1462 1463 1463 1463 1464 1464 1464 1465 1467 1467 1467 1468 1467 1467 1467 1467 1467 1467 1467 1466 1465 1464 1464 1463 1462 1460 1459 1458 1457 1457 1456 1455 1454 1453 1453 1452 1451
1457 1457 1457 1458 1458 1458 1459 1459 1459 1460 1460 1461 1461 1462 1462 1463 1463 1463 1463 1464 1464 1464 1464 1464 1464 1463 1462 1462 1460 1459 1458 1457 1456 1455 1454 1453 1453 1452 1451 1450 1449 1448 1447
1454 1454 1454 1455 1455 1455 1455 1455 1456 1457 1457 1457 1458 1459 1459 1459 1459 1460 1460 1461 1461 1461 1461 1461 1460 1460 1459 1458 1457 1456 1455 1454 1453 1452 1451 1450 1450 1449 1448 1447 1446 1445 1444
1451 1451 1451 1452 1452 1452 1452 1452 1453 1453 1454 1454 1454 1455 1456 1456 1457 1457 1457 1458 1458 1458 1458 1458 1457 1457 1455 1454 1454 1453 1452 1451 1450 1449 1448 1447 1447 1446 1445 1444 1443 1442 1441
1449 1449 1449 1449 1450 1450 1449 1449 1449 1450 1451 1451 1452 1452 1453 1454 1454 1454 1455 1455 1455 1455 1455 1455 1454 1453 1452 1451 1450 1450 1449 1448 1448 1446 1445 1444 1444 1443 1442 1441 1440 1439 1438
1447 1447 1448 1448 1448 1448 1447 1447 1448 1448 1449 1449 1450 1450 1451 1451 1452 1452 1452 1452 1452 1452 1452 1452 1451 1450 1449 1448 1447 1447 1446 1445 1444 1443 1442 1441 1441 1440 1439 1438 1437 1435 1434
1446 1446 1446 1446 1446 1446 1446 1446 1447 1447 1447 1448 1448 1448 1449 1449 1450 1450 1449 1449 1449 1450 1449 1449 1448 1448 1447 1446 1445 1444 1443 1442 1441 1440 1440 1439 1438 1437 1436 1434 1433 1432 1430
1445 1445 1445 1445 1445 1445 1445 1445 1446 1446 1446 1447 1447 1447 1447 1448 1448 1448 1448 1447 1447 1447 1447 1446 1446 1445 1445 1444 1443 1441 1440 1439 1439 1438 1437 1436 1435 1433 1432 1431 1429 1428 1426